GW6919 Weather Reports


Display with metric or nautical units.
time (UTC)temp
F
wind
direction
speed
MPH
gust
MPH
rain 1hr
in
rain 24hr
in
rain mn
in
humidity
%
barometer
mb
20260505211517 64 239 0.0 1.0 0.00 0.00 0.00 70 1015.9
20260505211013 64 255 0.0 1.0 0.00 0.00 0.00 68 1016.2
20260505210510 64 250 1.0 1.0 0.00 0.00 0.00 69 1016.0
20260505210007 63 251 1.0 1.0 0.00 0.00 0.00 70 1016.1
20260505205505 64 213 3.0 5.0 0.00 0.00 0.00 70 1015.8
20260505205002 64 268 1.0 1.0 0.00 0.00 0.00 70 1015.9
20260505204500 65 227 0.0 2.0 0.00 0.00 0.00 69 1016.1
20260505203957 66 56 2.0 3.0 0.00 0.00 0.00 67 1016.1
20260505203453 65 237 2.0 3.0 0.00 0.00 0.00 68 1016.2
20260505202950 66 238 2.0 3.0 0.00 0.00 0.00 66 1016.0
20260505202447 65 206 0.0 3.0 0.00 0.00 0.00 67 1016.1
20260505201942 65 244 0.0 2.0 0.00 0.00 0.00 70 1016.2
20260505201439 63 159 1.0 2.0 0.00 0.00 0.00 72 1016.3
20260505200937 64 259 2.0 5.0 0.00 0.00 0.00 70 1016.2
20260505200435 63 197 0.0 2.0 0.00 0.00 0.00 72 1016.2
20260505195930 62 175 1.0 1.0 0.00 0.00 0.00 74 1016.3
20260505195428 61 231 1.0 2.0 0.00 0.00 0.00 74 1016.3
20260505194925 62 260 0.0 3.0 0.00 0.00 0.00 74 1016.3
20260505194422 62 230 0.0 1.0 0.00 0.00 0.00 75 1016.4
20260505193922 62 272 1.0 2.0 0.00 0.00 0.00 75 1016.3
20260505193420 61 264 1.0 2.0 0.00 0.00 0.00 76 1016.5
20260505192918 61 265 0.0 1.0 0.00 0.00 0.00 76 1016.4
20260505192416 60 61 1.0 2.0 0.00 0.00 0.00 76 1016.4
20260505191913 60 322 1.0 3.0 0.00 0.00 0.00 77 1016.5
20260505191412 60 223 0.0 0.0 0.00 0.00 0.00 76 1016.5
20260505190908 60 244 0.0 0.0 0.00 0.00 0.00 78 1016.4
20260505190403 59 219 1.0 2.0 0.00 0.00 0.00 77 1016.4
20260505185859 59 256 1.0 2.0 0.00 0.00 0.00 78 1016.4
20260505185356 59 242 1.0 2.0 0.00 0.00 0.00 79 1016.4
20260505184852 59 239 1.0 2.0 0.00 0.00 0.00 79 1016.5
20260505184349 59 231 0.0 2.0 0.00 0.00 0.00 79 1016.2
20260505183846 60 261 0.0 0.0 0.00 0.00 0.00 79 1016.5
20260505183343 59 257 0.0 1.0 0.00 0.00 0.00 80 1016.4
20260505182839 59 239 0.0 1.0 0.00 0.00 0.00 80 1016.4
20260505182336 59 244 1.0 2.0 0.00 0.00 0.00 80 1016.5
20260505181833 59 264 1.0 1.0 0.00 0.00 0.00 80 1016.5
20260505181330 59 241 0.0 1.0 0.00 0.00 0.00 80 1016.4
20260505180827 58 242 1.0 1.0 0.00 0.00 0.00 80 1016.4
20260505180323 59 237 0.0 1.0 0.00 0.00 0.00 80 1016.5
20260505175820 59 229 0.0 1.0 0.00 0.00 0.00 79 1016.4
20260505175316 58 255 1.0 1.0 0.00 0.00 0.00 81 1016.2
20260505174813 58 236 0.0 2.0 0.00 0.00 0.00 81 1016.3
20260505174310 58 235 1.0 2.0 0.00 0.00 0.00 80 1016.2
20260505173806 58 227 1.0 3.0 0.00 0.00 0.00 81 1016.2
20260505173303 59 280 0.0 1.0 0.00 0.00 0.00 79 1016.2
20260505172759 59 285 0.0 1.0 0.00 0.00 0.00 80 1016.1
20260505172257 59 271 0.0 1.0 0.00 0.00 0.00 80 1016.2
20260505171752 59 242 1.0 2.0 0.00 0.00 0.00 79 1016.0
20260505171249 59 108 0.0 1.0 0.00 0.00 0.00 80 1016.1
20260505170745 59 70 1.0 1.0 0.00 0.00 0.00 80 1016.1
20260505170243 58 11 0.0 1.0 0.00 0.00 0.00 80 1016.0
20260505165738 58 276 0.0 1.0 0.00 0.00 0.00 81 1016.0
20260505165234 57 258 0.0 2.0 0.00 0.00 0.00 83 1015.9
20260505164730 58 233 1.0 3.0 0.00 0.00 0.00 83 1015.9
20260505164227 57 269 0.0 1.0 0.00 0.00 0.00 83 1015.9
20260505163725 57 289 0.0 2.0 0.00 0.00 0.00 83 1016.0
20260505163223 57 232 1.0 1.0 0.00 0.00 0.00 83 1015.8
20260505162720 57 253 0.0 1.0 0.00 0.00 0.00 83 1015.8
20260505162218 57 223 1.0 2.0 0.00 0.00 0.00 83 1016.0
20260505161714 57 296 0.0 2.0 0.00 0.00 0.00 84 1015.9
20260505161212 57 219 0.0 2.0 0.00 0.00 0.00 84 1015.8
20260505160709 57 4 1.0 1.0 0.00 0.00 0.00 85 1015.9
20260505160207 56 226 0.0 0.0 0.00 0.00 0.00 85 1016.0
20260505153146 56 229 0.0 2.0 0.00 0.00 0.00 86 1015.7
20260505152643 55 258 0.0 0.0 0.00 0.00 0.00 86 1015.8
20260505152139 55 229 0.0 1.0 0.00 0.00 0.00 86 1015.8
20260505151634 55 249 0.0 0.0 0.00 0.00 0.00 87 1015.7
20260505151131 55 245 0.0 1.0 0.00 0.00 0.00 87 1015.7
20260505150627 55 250 0.0 3.0 0.00 0.00 0.00 87 1015.8
20260505150124 55 209 2.0 2.0 0.00 0.00 0.00 86 1015.6
20260505140553 55 268 1.0 1.0 0.00 0.00 0.00 86 1015.3
20260505125006 55 149 0.0 0.0 0.00 0.00 0.00 88 1014.8
20260505124503 55 149 0.0 0.0 0.00 0.00 0.00 88 1014.6
20260505123959 55 149 0.0 0.0 0.00 0.00 0.00 88 1014.7
20260505123456 55 149 0.0 0.0 0.00 0.00 0.00 88 1014.6
20260505122952 55 149 0.0 0.0 0.00 0.00 0.00 88 1014.6
20260505122449 55 149 0.0 0.0 0.00 0.00 0.00 88 1014.6
20260505121946 55 149 0.0 0.0 0.00 0.00 0.00 88 1014.5
20260505121443 55 149 0.0 0.0 0.00 0.00 0.00 88 1014.7
20260505120938 55 149 0.0 0.0 0.00 0.00 0.00 88 1014.8
20260505120435 55 149 0.0 0.0 0.00 0.00 0.00 88 1014.5
20260505115934 55 149 0.0 0.0 0.00 0.00 0.00 88 1014.7
20260505115431 55 149 0.0 0.0 0.00 0.00 0.00 88 1014.6
20260505114929 55 150 0.0 0.0 0.00 0.00 0.00 88 1014.7
20260505114425 55 150 0.0 0.0 0.00 0.00 0.00 88 1014.5
20260505113921 55 149 0.0 0.0 0.00 0.00 0.00 88 1014.4
20260505113418 55 153 0.0 0.0 0.00 0.00 0.00 88 1014.5
20260505112914 55 153 0.0 0.0 0.00 0.00 0.00 88 1014.4
20260505112412 55 153 0.0 0.0 0.00 0.00 0.00 88 1014.5
20260505111908 55 155 0.0 1.0 0.00 0.00 0.00 88 1014.4
20260505111402 55 159 1.0 1.0 0.00 0.00 0.00 88 1014.6
20260505110859 55 160 0.0 0.0 0.00 0.00 0.00 88 1014.6
20260505110356 55 166 0.0 1.0 0.00 0.00 0.00 88 1014.5
20260505101827 55 162 0.0 1.0 0.00 0.00 0.00 88 1014.1
20260505101322 55 199 0.0 1.0 0.00 0.00 0.00 87 1014.3
20260505100818 55 213 0.0 0.0 0.00 0.00 0.00 87 1014.0
20260505100315 55 204 0.0 0.0 0.00 0.00 0.00 87 1014.3
20260505095810 55 195 0.0 1.0 0.00 0.00 0.00 87 1014.3
20260505095308 55 179 0.0 0.0 0.00 0.00 0.00 87 1014.1
20260505094804 55 202 0.0 0.0 0.00 0.00 0.00 87 1014.1
20260505094301 55 174 0.0 1.0 0.00 0.00 0.00 87 1013.9
20260505093756 55 178 0.0 1.0 0.00 0.00 0.00 87 1014.0
20260505093254 55 181 1.0 1.0 0.00 0.00 0.00 87 1013.9
20260505092751 56 185 0.0 1.0 0.00 0.00 0.00 87 1014.0
20260505092249 56 196 0.0 1.0 0.00 0.00 0.00 86 1014.2
20260505091746 56 204 0.0 1.0 0.00 0.00 0.00 86 1014.0
20260505091244 56 335 0.0 1.0 0.00 0.00 0.00 86 1013.8
20260505090742 55 285 0.0 1.0 0.00 0.00 0.00 87 1013.9
20260505090240 56 288 0.0 0.0 0.00 0.00 0.00 86 1014.0
20260505085737 56 289 0.0 0.0 0.00 0.00 0.00 86 1013.8
20260505085235 55 303 0.0 1.0 0.00 0.00 0.00 86 1013.7
20260505084732 56 205 0.0 0.0 0.00 0.00 0.00 86 1013.7
20260505084231 56 93 1.0 1.0 0.00 0.00 0.00 86 1013.7
20260505083728 56 201 0.0 0.0 0.00 0.00 0.00 85 1013.8
20260505083224 56 203 0.0 0.0 0.00 0.00 0.00 85 1013.6
20260505082720 56 190 0.0 0.0 0.00 0.00 0.00 85 1013.5
20260505082218 56 193 0.0 1.0 0.00 0.00 0.00 85 1013.4
20260505081713 56 191 0.0 1.0 0.00 0.00 0.00 85 1013.7
20260505081211 56 208 0.0 1.0 0.00 0.00 0.00 85 1013.6
20260505080708 56 189 0.0 1.0 0.00 0.00 0.00 85 1013.6
20260505080204 56 203 0.0 1.0 0.00 0.00 0.00 85 1013.6
20260505075700 56 154 1.0 2.0 0.00 0.00 0.00 85 1013.5
20260505075157 57 199 0.0 1.0 0.00 0.00 0.00 84 1013.6
20260505074654 57 177 0.0 1.0 0.00 0.00 0.00 84 1013.5
20260505074151 57 182 0.0 1.0 0.00 0.00 0.00 84 1013.4
20260505073648 57 161 0.0 2.0 0.00 0.00 0.00 84 1013.1
20260505073146 57 165 0.0 1.0 0.00 0.00 0.00 84 1013.2
20260505072641 57 156 0.0 1.0 0.00 0.00 0.00 83 1013.2
20260505072138 57 158 0.0 1.0 0.00 0.00 0.00 83 1013.2
20260505071634 57 142 1.0 2.0 0.00 0.00 0.00 83 1013.1
20260505071132 57 182 0.0 1.0 0.00 0.00 0.00 82 1012.9
20260505070629 58 147 0.0 1.0 0.00 0.00 0.00 82 1012.8
20260505070125 58 153 0.0 1.0 0.00 0.00 0.00 81 1012.9
20260505065621 58 151 0.0 0.0 0.00 0.00 0.00 81 1012.7
20260505065118 58 146 0.0 1.0 0.00 0.00 0.00 81 1012.5
20260505064615 59 146 0.0 0.0 0.00 0.00 0.00 80 1012.6
20260505064114 59 159 0.0 1.0 0.00 0.00 0.00 79 1012.4
20260505063610 59 159 0.0 0.0 0.00 0.00 0.00 79 1012.3
20260505063106 60 162 0.0 1.0 0.00 0.00 0.00 79 1012.5
20260505062603 60 150 1.0 1.0 0.00 0.00 0.00 78 1012.2
20260505062100 60 164 0.0 1.0 0.00 0.00 0.00 78 1012.3
20260505061557 60 171 1.0 1.0 0.00 0.00 0.00 78 1012.2
20260505061055 60 174 0.0 1.0 0.00 0.00 0.00 77 1012.1
20260505060553 60 184 0.0 1.0 0.00 0.00 0.00 77 1012.2
20260505060049 61 176 0.0 0.0 0.00 0.00 0.00 76 1012.1
20260505055544 61 234 0.0 1.0 0.00 0.00 0.00 75 1012.1
20260505055041 62 197 0.0 1.0 0.00 0.00 0.00 74 1012.0
20260505054539 62 108 1.0 1.0 0.00 0.00 0.00 74 1011.9
20260505054037 62 198 0.0 1.0 0.00 0.00 0.00 74 1012.0
20260505053533 62 274 0.0 0.0 0.00 0.00 0.00 73 1011.9
20260505053030 63 136 1.0 2.0 0.00 0.00 0.00 72 1011.8
20260505052527 63 171 1.0 2.0 0.00 0.00 0.00 72 1011.8
20260505052025 64 195 0.0 1.0 0.00 0.00 0.00 71 1012.0
20260505051521 64 159 0.0 1.0 0.00 0.00 0.00 71 1011.8
20260505051020 64 141 0.0 2.0 0.00 0.00 0.00 71 1012.0
20260505050517 64 165 1.0 1.0 0.00 0.00 0.00 70 1011.8
20260505041445 68 194 0.0 1.0 0.00 0.00 0.00 65 1011.2
20260505040942 69 169 1.0 1.0 0.00 0.00 0.00 65 1011.0
20260505040440 69 196 0.0 1.0 0.00 0.00 0.00 66 1011.1
20260505035936 69 197 0.0 0.0 0.00 0.00 0.00 67 1010.9
20260505035432 69 193 0.0 1.0 0.00 0.00 0.00 71 1010.8
20260505034930 69 194 0.0 0.0 0.00 0.00 0.00 70 1010.8
20260505034426 69 176 0.0 0.0 0.00 0.00 0.00 71 1010.6
20260505033923 69 197 1.0 1.0 0.00 0.00 0.00 70 1010.5
20260505033420 69 237 0.0 0.0 0.00 0.00 0.00 73 1010.4
20260505032918 68 229 0.0 1.0 0.00 0.00 0.00 73 1010.4
20260505032415 68 231 0.0 1.0 0.00 0.00 0.00 73 1010.1
20260505031911 68 230 0.0 0.0 0.00 0.00 0.00 72 1010.2
20260505031408 69 231 0.0 1.0 0.00 0.00 0.00 73 1010.0
20260505030905 69 231 0.0 0.0 0.00 0.00 0.00 72 1009.9
20260505030401 69 228 0.0 0.0 0.00 0.00 0.00 71 1009.9
20260505025856 69 228 0.0 1.0 0.00 0.00 0.00 70 1009.9
20260505025354 70 233 0.0 0.0 0.00 0.00 0.00 69 1009.9
20260505024853 70 233 0.0 0.0 0.00 0.00 0.00 70 1009.8
20260505024350 70 242 0.0 1.0 0.00 0.00 0.00 70 1009.8
20260505023847 71 252 0.0 0.0 0.00 0.00 0.00 70 1009.8
20260505023344 71 252 0.0 2.0 0.00 0.00 0.00 68 1009.9
20260505022841 71 204 2.0 3.0 0.00 0.00 0.00 66 1009.9
20260505022338 72 184 1.0 2.0 0.00 0.00 0.00 65 1009.8
20260505021836 72 217 0.0 1.0 0.00 0.00 0.00 65 1009.8
20260505021332 72 296 1.0 3.0 0.00 0.00 0.00 64 1009.8
20260505020828 72 221 2.0 2.0 0.00 0.00 0.00 64 1009.8
20260505020324 72 204 3.0 3.0 0.00 0.00 0.00 63 1009.9
20260505015821 73 268 2.0 5.0 0.00 0.00 0.00 63 1009.9
20260505015318 73 240 1.0 2.0 0.00 0.00 0.00 62 1009.8
20260505014815 73 230 1.0 3.0 0.00 0.00 0.00 62 1010.0
20260505014312 73 324 1.0 5.0 0.00 0.00 0.00 61 1009.9
20260505013808 73 209 1.0 1.0 0.00 0.00 0.00 61 1009.8
20260505013306 73 212 1.0 3.0 0.00 0.00 0.00 60 1010.0
20260505012804 73 293 2.0 5.0 0.00 0.00 0.00 60 1010.0
20260505012301 74 196 1.0 2.0 0.00 0.00 0.00 59 1010.0
20260505011757 74 267 1.0 3.0 0.00 0.00 0.00 58 1010.0
20260505011254 74 268 1.0 2.0 0.00 0.00 0.00 59 1010.0
20260505010750 76 303 1.0 3.0 0.00 0.00 0.00 56 1009.9
20260505010246 76 291 2.0 3.0 0.00 0.00 0.00 55 1010.0
20260505005743 77 236 0.0 2.0 0.00 0.00 0.00 53 1010.2
20260505005240 78 207 3.0 3.0 0.00 0.00 0.00 53 1010.0
20260505004737 78 235 1.0 2.0 0.00 0.00 0.00 52 1010.0
20260505004233 77 281 1.0 1.0 0.00 0.00 0.00 52 1010.0
20260505003730 78 217 3.0 3.0 0.00 0.00 0.00 52 1010.4
20260505003228 79 271 0.0 2.0 0.00 0.00 0.00 50 1010.2
20260505002724 78 253 0.0 1.0 0.00 0.00 0.00 50 1010.1
20260504224600 74 252 0.0 3.0 0.00 0.00 0.00 54 1011.0
20260504224057 74 252 0.0 3.0 0.00 0.00 0.00 54 1011.0
20260504223554 74 239 0.0 1.0 0.00 0.00 0.00 56 1010.8
20260504223050 74 211 1.0 3.0 0.00 0.00 0.00 56 1011.1
20260504222547 73 306 1.0 7.0 0.00 0.00 0.00 56 1011.2
20260504222044 74 251 0.0 1.0 0.00 0.00 0.00 54 1011.4
20260504221542 75 265 2.0 5.0 0.00 0.00 0.00 54 1011.3
20260504221038 75 49 0.0 1.0 0.00 0.00 0.00 54 1011.4
20260504220535 73 231 1.0 2.0 0.00 0.00 0.00 56 1011.5
20260504220032 72 292 1.0 3.0 0.00 0.00 0.00 57 1011.4
20260504215528 72 260 2.0 3.0 0.00 0.00 0.00 58 1011.5
20260504215026 73 254 2.0 5.0 0.00 0.00 0.00 58 1011.6
20260504214522 72 328 3.0 3.0 0.00 0.00 0.00 57 1011.7
20260504214018 72 25 1.0 3.0 0.00 0.00 0.00 58 1011.7
20260504213514 71 54 0.0 5.0 0.00 0.00 0.00 59 1011.7
20260504213012 71 249 1.0 2.0 0.00 0.00 0.00 59 1011.5
20260504212508 71 242 4.0 6.0 0.00 0.00 0.00 60 1011.7
20260504212005 69 293 1.0 2.0 0.00 0.00 0.00 62 1012.0